Date,TemperatureHighF,TemperatureAvgF,TemperatureLowF,DewpointHighF,DewpointAvgF,DewpointLowF,HumidityHigh,HumidityAvg,HumidityLow,PressureMaxIn,PressureMinIn,WindSpeedMaxMPH,WindSpeedAvgMPH,GustSpeedMaxMPH,PrecipitationSumIn
2013-3-1,41,35,31,35,33,31,100,94,78,0.00,40.00,14,5,17,0.00
2013-3-2,39,33,28,35,32,28,100,95,83,0.00,40.00,12,8,16,0.00
2013-3-3,42,38,32,39,35,32,100,90,73,0.00,40.00,31,15,40,0.00
2013-3-4,34,30,25,21,16,11,73,57,38,0.00,40.00,8,5,15,0.00
2013-3-5,40,31,24,28,20,12,78,62,41,0.00,40.00,15,8,20,0.00
2013-3-6,51,35,28,36,28,22,100,79,48,0.00,40.00,21,10,28,0.01
2013-3-7,41,34,30,31,26,24,91,72,53,0.00,40.00,10,6,14,0.01
2013-3-8,41,35,31,37,32,29,100,92,76,0.00,40.00,8,5,12,0.00
2013-3-9,44,34,26,30,26,23,100,75,44,0.00,40.00,17,5,23,0.00
2013-3-10,47,35,27,30,26,20,92,71,47,0.00,40.00,16,8,23,0.00
2013-3-11,50,42,37,40,29,20,85,61,43,0.00,40.00,15,11,23,0.00
2013-3-12,52,41,31,37,33,29,92,74,52,0.00,40.00,15,8,21,0.00
2013-3-13,62,44,30,39,34,30,100,72,36,0.00,40.00,11,4,17,0.00
2013-3-14,62,45,30,38,35,30,100,72,39,0.00,40.00,9,5,15,0.00
2013-3-15,60,49,38,36,33,31,84,56,34,0.00,40.00,20,10,29,0.00
2013-3-16,55,44,32,37,29,22,81,58,27,0.00,40.00,18,10,24,0.00
2013-3-17,42,38,31,39,20,7,94,53,23,0.00,40.00,30,18,46,0.00
2013-3-18,45,34,25,19,16,13,68,47,29,0.00,40.00,27,16,36,0.00
2013-3-19,50,36,22,20,14,0,72,45,12,0.00,40.00,15,5,23,0.00
2013-3-20,47,41,36,42,30,6,99,68,22,0.00,40.00,15,8,24,0.01
2013-3-21,42,36,31,41,26,16,100,69,46,0.00,40.00,30,20,42,0.01
2013-3-22,32,28,23,25,22,19,97,79,63,0.00,40.00,16,9,20,0.00
2013-3-23,33,24,15,24,20,14,96,83,50,0.00,40.00,17,6,22,0.00
2013-3-24,37,28,21,23,17,9,94,67,30,0.00,40.00,9,4,14,0.00
2013-3-25,45,31,18,28,16,9,71,55,34,0.00,40.00,9,5,12,0.00
2013-3-26,46,37,31,35,30,23,96,76,54,0.00,40.00,13,6,18,0.00
2013-3-27,57,40,30,39,34,29,100,80,35,0.00,40.00,8,4,13,0.00
2013-3-28,63,44,32,35,32,28,100,70,27,0.00,40.00,11,6,16,0.00
2013-3-29,64,49,38,38,35,30,91,64,28,0.00,40.00,17,7,29,0.00
2013-3-30,62,47,31,36,31,27,91,58,26,0.00,40.00,11,4,18,0.00
2013-3-31,67,47,28,32,24,6,91,49,8,0.00,40.00,8,4,13,0.00